FW1555 Weather Reports


time (UTC)temp
C
wind
direction
speed
KPH
gust
KPH
rain 1hr
cm
rain 24hr
cm
rain mn
cm
humidity
%
barometer
mb
20260510190052 21 265 1.6 19.3 0.00 0.58 0.00 66 1012.2
20260510184551 22 256 3.2 11.3 0.00 0.81 0.00 69 1012.2
20260510183047 21 251 4.8 17.7 0.00 0.81 0.00 69 1012.1
20260510181545 21 230 1.6 12.9 0.00 0.81 0.00 70 1012.1
20260510180046 21 0 0.0 8.0 0.00 0.81 0.00 73 1012.1
20260510174548 20 219 0.0 16.1 0.00 0.81 0.00 74 1012.1
20260510173046 20 261 1.6 14.5 0.00 0.81 0.00 75 1012.2
20260510171549 19 261 3.2 12.9 0.00 0.81 0.00 79 1012.3
20260510170047 18 258 3.2 16.1 0.00 0.81 0.00 78 1012.5
20260510164555 18 215 0.0 8.0 0.00 0.81 0.00 82 1012.6
20260510163051 17 0 0.0 8.0 0.00 0.81 0.00 85 1012.8
20260510161550 17 0 0.0 6.4 0.00 0.81 0.00 85 1013.0
20260510160046 16 0 0.0 11.3 0.00 0.81 0.00 87 1012.7
20260510154552 16 0 3.2 12.9 0.00 0.81 0.00 88 1013.0
20260510153048 15 0 1.6 11.3 0.00 0.81 0.00 89 1013.0
20260510151552 15 0 0.0 8.0 0.00 0.81 0.00 92 1013.0
20260510150114 13 0 0.0 3.2 0.00 0.81 0.00 94 1013.1
20260510144607 13 0 0.0 8.0 0.00 0.81 0.00 95 1013.1
20260510143056 13 0 0.0 8.0 0.00 0.81 0.00 95 1013.1
20260510141546 13 0 0.0 0.0 0.00 0.81 0.00 96 1013.0
20260510140044 12 0 0.0 3.2 0.00 0.81 0.00 97 1012.9
20260510134549 12 0 0.0 0.0 0.00 0.81 0.00 98 1013.0
20260510133049 12 0 0.0 0.0 0.00 0.81 0.00 98 1012.8
20260510131548 12 0 0.0 0.0 0.00 0.81 0.00 99 1012.7
20260510130047 12 0 0.0 0.0 0.00 0.81 0.00 99 1012.4
20260510124549 11 0 0.0 0.0 0.00 0.81 0.00 99 1012.5
20260510123048 11 0 0.0 0.0 0.00 0.81 0.00 99 1012.2
20260510121550 11 0 0.0 0.0 0.00 0.81 0.00 99 1012.1
20260510120048 11 0 0.0 0.0 0.00 0.81 0.00 99 1012.1
20260510114606 11 0 0.0 0.0 0.00 0.81 0.00 99 1012.1
20260510113053 11 0 0.0 0.0 0.00 0.81 0.00 99 1011.9
20260510111543 11 0 0.0 1.6 0.00 0.81 0.00 100 1011.6
20260510110047 11 0 0.0 0.0 0.00 0.81 0.00 99 1011.4
20260510104555 11 0 0.0 0.0 0.00 0.81 0.00 99 1011.3
20260510103047 11 0 0.0 3.2 0.00 0.81 0.00 99 1011.3
20260510101543 11 0 0.0 4.8 0.00 0.81 0.00 99 1011.4
20260510100059 11 0 0.0 8.0 0.00 0.81 0.00 99 1011.2
20260510094600 11 0 0.0 3.2 0.00 0.81 0.00 99 1011.2
20260510093050 11 0 0.0 0.0 0.00 0.81 0.00 99 1011.4
20260510091550 11 0 0.0 0.0 0.00 0.81 0.00 99 1011.5
20260510090045 11 0 0.0 0.0 0.00 0.81 0.00 99 1011.7
20260510084549 11 0 0.0 0.0 0.00 0.81 0.00 99 1011.7
20260510083049 11 0 0.0 0.0 0.00 0.81 0.00 99 1011.8
20260510081550 11 0 0.0 0.0 0.00 0.81 0.00 99 1011.6
20260510080050 11 0 0.0 0.0 0.00 0.81 0.00 99 1011.5
20260510074545 11 0 0.0 0.0 0.00 0.81 0.00 99 1010.7
20260510073049 11 0 0.0 0.0 0.00 0.81 0.00 99 1010.8
20260510071549 11 0 0.0 0.0 0.00 0.81 0.00 99 1010.9
20260510070106 11 0 0.0 0.0 0.00 0.81 0.00 99 1011.0
20260510064555 11 0 0.0 0.0 0.00 0.81 0.00 99 1011.0
20260510063045 11 0 0.0 0.0 0.00 0.81 0.00 99 1011.2
20260510061543 11 0 0.0 0.0 0.00 0.81 0.00 99 1011.1
20260510060051 11 0 0.0 0.0 0.00 0.81 0.00 99 1010.9
20260510054548 11 0 0.0 0.0 0.00 0.81 0.00 99 1010.7
20260510053048 11 0 0.0 0.0 0.00 0.81 0.00 99 1010.8
20260510051547 11 0 0.0 0.0 0.00 0.81 0.00 99 1011.0
20260510050051 11 0 0.0 0.0 0.00 0.81 0.00 98 1010.9
20260510044551 11 0 0.0 0.0 0.00 0.81 0.00 99 1011.1
20260510043044 11 0 0.0 0.0 0.00 0.81 0.00 99 1011.0
20260510041555 11 0 0.0 0.0 0.00 0.81 0.00 98 1010.9
20260510040052 11 0 0.0 0.0 0.00 0.81 0.00 98 1011.1
20260510034549 11 0 0.0 0.0 0.00 0.81 0.81 99 1010.7
20260510033107 11 0 0.0 0.0 0.00 0.81 0.81 98 1010.6
20260510031549 11 0 0.0 0.0 0.00 0.81 0.81 98 1010.5
20260510030049 11 0 0.0 0.0 0.00 0.81 0.81 98 1010.6
20260510024545 11 0 0.0 0.0 0.00 0.81 0.81 98 1010.8
20260510023045 11 0 0.0 0.0 0.00 0.81 0.81 98 1010.9
20260510021545 11 0 0.0 0.0 0.00 0.81 0.81 98 1010.7
20260510020049 11 0 0.0 0.0 0.00 0.81 0.81 98 1010.8
20260510014551 11 0 0.0 0.0 0.00 0.81 0.81 98 1010.8
20260510013048 11 0 0.0 0.0 0.00 0.81 0.81 98 1010.7
20260510011549 11 0 0.0 0.0 0.00 0.81 0.81 98 1010.4
20260510010059 11 0 0.0 0.0 0.00 0.81 0.81 97 1010.3
20260510004556 11 0 0.0 0.0 0.00 0.81 0.81 97 1010.1
20260510003058 11 0 0.0 0.0 0.00 0.81 0.81 97 1010.2
20260510001548 11 0 0.0 0.0 0.00 0.81 0.81 97 1010.2
20260510000053 12 0 0.0 0.0 0.00 0.81 0.81 96 1010.0
20260509234600 12 0 0.0 0.0 0.00 0.81 0.81 97 1009.8
20260509233049 12 0 0.0 0.0 0.00 0.81 0.81 97 1009.7
20260509231548 12 0 0.0 1.6 0.00 0.81 0.81 97 1009.8
20260509230047 12 0 0.0 0.0 0.03 0.81 0.81 97 1010.2
20260509224547 12 0 0.0 0.0 0.08 0.81 0.81 98 1010.1
20260509223056 12 0 0.0 0.0 0.23 0.81 0.81 97 1010.1
20260509221550 12 0 0.0 0.0 0.30 0.81 0.81 97 1010.2
20260509220057 12 0 0.0 1.6 0.38 0.79 0.79 96 1010.6
20260509214548 12 0 0.0 0.0 0.36 0.71 0.71 96 1010.5
20260509213050 12 0 0.0 0.0 0.28 0.58 0.58 96 1010.6
20260509211550 12 0 0.0 0.0 0.25 0.51 0.51 96 1010.4
20260509210051 12 0 0.0 0.0 0.15 0.41 0.41 95 1010.4
20260509204558 12 0 0.0 0.0 0.10 0.36 0.36 94 1010.7
20260509203049 13 0 0.0 1.6 0.08 0.30 0.30 94 1011.1
20260509201548 13 0 0.0 0.0 0.03 0.25 0.25 94 1010.8
20260509200054 13 0 0.0 0.0 0.03 0.25 0.25 94 1010.8
20260509194546 13 0 0.0 0.0 0.05 0.25 0.25 94 1010.7
20260509193056 13 0 0.0 0.0 0.05 0.23 0.23 93 1010.7
20260509191555 13 0 0.0 0.0 0.18 0.23 0.23 93 1010.7